Date String (YYYY-MM-DD hh:mm:ss) UTC,Instrument flags,absolute air pressure of the measurement (hPa),sample flow rate (lpm),inlet stack bypass flow (lpm),air temperature of the measurement (°C),ambient temperature measured by the external sensor (°C),aerosol sample conditioner tube jacket temperature (°C),OPC LED temperature (°C),internal box temperature (°C),relative humidity of the measurement (%),span deviation,mass concentration of particles derived from Lorenz-Mie calculation of OPC scattering (μg/m³),mass concentration of particles derived from Lorenz-Mie calculation of OPC scattering (μg/m³),mass concentration of particles derived from Lorenz-Mie calculation of OPC scattering (μg/m³)
DateTimeUTC,F1_M11,P_M11,Q1_M11,Q2_M11,T1_M11,T2_M11,T3_M11,T4_M11,T5_M11,U1_M11,ZSPAN_M11,X0_M11,X2_M11,X1_M11
2023-08-25 02:00:00,SystemResetWarning,0832.5,4.99,000.00,027.9,025.5,000.0,036.0,029.4,33.5,0001.9,0015.89,0007.52,0006.14
2023-08-25 02:01:00,SystemResetWarning,0832.6,5.00,000.00,027.8,024.0,000.0,035.9,029.0,33.3,0001.6,0016.64,0007.55,0006.15
2023-08-25 02:02:00,SystemResetWarning,0832.5,5.00,000.00,027.7,023.7,000.0,035.9,028.9,33.4,0001.9,0016.64,0007.58,0006.15
2023-08-25 02:03:00,SystemResetWarning,0832.5,5.01,000.00,027.7,023.9,000.0,035.9,028.8,33.4,0001.1,0016.48,0007.56,0006.16
2023-08-25 02:04:00,SystemResetWarning,0832.5,5.00,000.00,027.6,024.3,000.0,035.9,029.0,33.4,0000.9,0017.00,0007.50,0006.16
2023-08-25 02:05:00,SystemResetWarning,0832.7,5.00,000.00,027.6,024.8,000.0,036.0,029.1,33.5,0000.6,0016.43,0007.47,0006.17
2023-08-25 02:06:00,SystemResetWarning,0832.6,5.00,000.00,027.7,025.3,000.0,036.0,029.2,33.8,0000.4,0016.24,0007.42,0006.19
2023-08-25 02:07:00,SystemResetWarning,0832.7,5.00,000.00,027.7,025.7,000.0,036.0,029.3,33.9,-000.2,0015.46,0007.37,0006.20
2023-08-25 02:08:00,SystemResetWarning,0832.7,5.00,000.00,027.8,026.0,000.0,036.0,029.4,34.0,-000.6,0015.37,0007.32,0006.20
2023-08-25 02:09:00,SystemResetWarning,0832.8,5.00,000.00,027.8,026.3,000.0,036.1,029.5,34.1,-000.7,0015.17,0007.26,0006.20
2023-08-25 02:10:00,SystemResetWarning,0832.8,4.99,000.00,027.8,025.7,000.0,036.0,029.4,34.4,-000.6,0015.11,0007.24,0006.21
2023-08-25 02:11:00,SystemResetWarning,0832.7,4.99,000.00,027.7,024.3,000.0,035.9,029.0,34.7,-000.7,0014.92,0007.18,0006.21
2023-08-25 02:12:00,SystemResetWarning,0832.7,5.03,000.00,027.7,023.7,000.0,035.8,028.9,35.9,-000.9,0013.80,0007.10,0006.19
2023-08-25 02:13:00,SystemResetWarning,0832.7,4.99,000.00,027.9,023.9,000.0,035.8,029.0,36.5,-001.0,0013.72,0007.06,0006.19
2023-08-25 02:14:00,SystemResetWarning,0832.8,4.99,000.00,028.2,024.3,000.0,035.9,029.2,36.3,-001.0,0013.36,0007.05,0006.20
2023-08-25 02:15:00,SystemResetWarning,0832.7,5.00,000.00,028.6,024.8,000.0,035.9,029.5,35.7,-000.9,0012.82,0007.11,0006.22
2023-08-25 02:16:00,SystemResetWarning,0832.8,5.01,000.00,029.0,025.2,000.0,036.0,029.7,34.6,-000.7,0012.44,0007.16,0006.24
2023-08-25 02:17:00,SystemResetWarning,0832.7,4.98,000.00,029.3,025.6,000.0,036.2,029.8,34.1,-000.5,0012.35,0007.14,0006.23
2023-08-25 02:18:00,SystemResetWarning,0832.7,5.02,000.00,029.5,026.0,000.0,036.3,029.8,33.3,-000.0,0012.60,0007.14,0006.25
2023-08-25 02:19:00,SystemResetWarning,0832.7,4.99,000.00,029.6,026.3,000.0,036.5,029.9,32.7,0000.7,0011.86,0007.13,0006.26
2023-08-25 02:20:00,SystemResetWarning,0832.7,5.00,000.00,029.7,026.4,000.0,036.6,029.9,32.0,0000.7,0012.72,0007.14,0006.26
2023-08-25 02:21:00,SystemResetWarning,0832.7,4.99,000.00,029.8,025.4,000.0,036.7,029.6,31.6,0000.5,0013.12,0007.16,0006.27
2023-08-25 02:22:00,SystemResetWarning,0832.7,5.01,000.00,029.7,024.1,000.0,036.7,029.2,31.6,0000.2,0013.56,0007.14,0006.26
2023-08-25 02:23:00,SystemResetWarning,0832.8,5.01,000.00,029.6,023.8,000.0,036.7,029.2,32.3,0000.6,0014.68,0007.17,0006.27
2023-08-25 02:24:00,SystemResetWarning,0832.7,5.01,000.00,029.5,024.0,000.0,036.8,029.2,33.1,0000.6,0015.90,0007.19,0006.27
2023-08-25 02:25:00,SystemResetWarning,0832.8,5.00,000.00,029.4,024.4,000.0,036.9,029.3,33.7,0000.4,0016.64,0007.18,0006.27
2023-08-25 02:26:00,SystemResetWarning,0833.0,5.00,000.00,029.4,024.9,000.0,037.0,029.4,33.7,0000.6,0017.05,0007.14,0006.26
2023-08-25 02:27:00,SystemResetWarning,0833.0,5.00,000.00,029.4,025.3,000.0,037.0,029.6,33.7,0000.5,0017.80,0007.08,0006.24
2023-08-25 02:28:00,SystemResetWarning,0832.8,4.99,000.00,029.4,025.7,000.0,037.1,029.6,33.9,0000.5,0018.19,0007.09,0006.23
2023-08-25 02:29:00,SystemResetWarning,0832.9,5.00,000.00,029.4,026.0,000.0,037.1,029.7,33.7,0000.3,0018.50,0007.13,0006.22
2023-08-25 02:30:00,SystemResetWarning,0832.9,5.00,000.00,029.4,026.3,000.0,037.2,029.8,33.7,0000.0,0019.25,0007.14,0006.21
2023-08-25 02:31:00,SystemResetWarning,0832.9,5.00,000.00,029.5,026.5,000.0,037.2,029.9,33.7,0000.1,0018.79,0007.14,0006.21
2023-08-25 02:32:00,SystemResetWarning,0832.8,5.01,000.00,029.5,026.3,000.0,037.2,029.9,33.3,0000.2,0018.32,0007.15,0006.21
2023-08-25 02:33:00,SystemResetWarning,0833.0,4.98,000.00,029.4,024.9,000.0,037.1,029.6,33.8,0000.6,0018.07,0007.14,0006.23
2023-08-25 02:34:00,SystemResetWarning,0832.7,5.02,000.00,029.3,023.8,000.0,037.0,029.3,34.2,0000.4,0016.98,0007.15,0006.23
2023-08-25 02:35:00,SystemResetWarning,0832.7,5.00,000.00,029.1,023.7,000.0,036.9,029.2,34.1,0000.1,0016.30,0007.11,0006.22
2023-08-25 02:36:00,SystemResetWarning,0832.7,4.99,000.00,029.0,024.0,000.0,037.0,029.2,33.9,0000.4,0015.56,0007.15,0006.22
2023-08-25 02:37:00,SystemResetWarning,0832.6,5.00,000.00,029.0,024.4,000.0,037.0,029.3,34.0,0000.5,0015.20,0007.19,0006.22
2023-08-25 02:38:00,SystemResetWarning,0832.7,5.01,000.00,028.9,024.9,000.0,037.0,029.5,34.1,0000.4,0014.87,0007.22,0006.21
2023-08-25 02:39:00,SystemResetWarning,0832.7,5.01,000.00,028.9,025.3,000.0,037.0,029.5,34.1,0000.2,0014.75,0007.25,0006.22
2023-08-25 02:40:00,SystemResetWarning,0832.8,5.00,000.00,028.9,025.7,000.0,037.0,029.6,33.9,0000.0,0015.04,0007.27,0006.21
2023-08-25 02:41:00,SystemResetWarning,0833.0,5.00,000.00,028.9,026.0,000.0,037.1,029.7,33.9,-000.1,0014.90,0007.26,0006.21
2023-08-25 02:42:00,SystemResetWarning,0832.9,5.01,000.00,028.9,026.2,000.0,037.1,029.7,33.8,-000.3,0015.17,0007.30,0006.20
2023-08-25 02:43:00,SystemResetWarning,0832.9,5.00,000.00,028.9,026.5,000.0,037.1,029.8,32.8,-000.5,0015.72,0007.31,0006.20
2023-08-25 02:44:00,SystemResetWarning,0833.0,4.99,000.00,029.0,026.5,000.0,037.1,029.9,32.1,-000.7,0015.78,0007.39,0006.22
2023-08-25 02:45:00,SystemResetWarning,0832.8,4.99,000.00,028.9,025.4,000.0,037.0,029.6,33.0,-000.5,0015.98,0007.41,0006.22
2023-08-25 02:46:00,SystemResetWarning,0832.7,5.00,000.00,028.8,024.1,000.0,036.8,029.2,33.4,-000.5,0016.55,0007.47,0006.22
2023-08-25 02:47:00,SystemResetWarning,0832.7,5.00,000.00,028.7,023.7,000.0,036.8,029.1,34.0,-000.6,0017.41,0007.49,0006.21
2023-08-25 02:48:00,SystemResetWarning,0832.6,5.01,000.00,028.5,023.9,000.0,036.8,029.1,34.4,-000.5,0018.13,0007.51,0006.19
2023-08-25 02:49:00,SystemResetWarning,0832.6,5.00,000.00,028.5,024.3,000.0,036.8,029.2,34.6,-000.4,0017.93,0007.54,0006.19
2023-08-25 02:50:00,SystemResetWarning,0832.6,4.99,000.00,028.4,024.8,000.0,036.8,029.3,34.5,-000.3,0017.80,0007.56,0006.20
2023-08-25 02:51:00,SystemResetWarning,0832.5,5.00,000.00,028.4,025.2,000.0,036.8,029.4,34.4,-000.3,0017.24,0007.50,0006.19
2023-08-25 02:52:00,SystemResetWarning,0832.6,5.01,000.00,028.4,025.6,000.0,036.8,029.5,34.2,-000.4,0016.68,0007.53,0006.16
2023-08-25 02:53:00,SystemResetWarning,0832.6,5.01,000.00,028.5,025.9,000.0,036.8,029.6,34.3,-000.1,0016.53,0007.54,0006.15
2023-08-25 02:54:00,SystemResetWarning,0832.6,4.99,000.00,028.5,026.1,000.0,036.8,029.7,34.2,0000.2,0016.71,0007.56,0006.12
2023-08-25 02:55:00,SystemResetWarning,0832.5,4.99,000.00,028.5,026.4,000.0,036.8,029.7,34.2,0000.6,0017.71,0007.52,0006.08
2023-08-25 02:56:00,SystemResetWarning,0832.6,5.01,000.00,028.5,026.5,000.0,036.8,029.8,33.9,0000.4,0017.80,0007.52,0006.06
2023-08-25 02:57:00,SystemResetWarning,0832.6,5.00,000.00,028.6,026.4,000.0,036.8,029.8,33.9,0000.6,0017.45,0007.53,0006.05
2023-08-25 02:58:00,SystemResetWarning,0832.5,4.99,000.00,028.5,025.0,000.0,036.7,029.4,33.8,0000.8,0016.36,0007.49,0006.04
2023-08-25 02:59:00,SystemResetWarning,0832.5,5.01,000.00,028.4,023.8,000.0,036.5,029.1,34.1,0001.0,0015.44,0007.47,0006.03
